Dewpoint
51 51 52 51 50 51 50 52 54 55 54 54 54 53 53 53 52 54 53 53 54 54 54 54 55 56 47 30 26 25 55 54 39 29 24 18 20 20 20 20 22 22 27 34 42 40 41
52 51 52 52 51 52 51 52 53 54 54 54 54 54 54 53 53 53 53 53 53 53 54 54 55 56 41 26 28 29 30 27 24 28 29 21 21 22 26 22 24 29 35 37 40 38 38
52 52 52 53 52 54 53 53 52 53 54 54 54 54 53 53 53 53 53 53 53 53 53 54 55 53 41 23 29 33 33 26 24 26 24 24 24 27 29 30 32 35 35 36 36 38 38
52 51 52 54 54 54 52 51 52 54 54 55 54 54 53 53 53 53 53 53 53 53 54 54 55 50 25 32 36 35 33 27 26 26 25 24 28 31 31 33 29 30 32 31 33 36 36
53 51 52 53 53 51 50 51 51 53 54 54 54 54 54 53 53 53 53 52 53 54 54 54 48 38 26 38 31 32 31 23 22 24 26 29 33 32 31 29 27 27 26 26 26 35 34
52 51 52 53 53 51 51 51 52 52 53 54 54 54 53 53 53 52 52 53 53 53 53 52 45 26 26 24 33 32 28 27 20 27 26 28 30 28 29 28 24 26 26 31 25 31 36
52 51 52 52 52 52 52 53 53 53 53 54 54 53 53 53 53 52 51 48 46 40 46 29 27 28 29 36 35 30 31 19 21 21 20 26 23 20 24 29 28 26 25 23 23 26 33
53 53 52 51 52 51 52 52 53 53 53 53 53 53 53 53 53 52 49 48 49 48 45 45 44 42 42 39 33 30 28 19 20 15 23 19 20 24 27 29 28 28 26 25 26 28 27
53 53 53 50 51 51 51 52 53 52 52 53 53 53 53 53 52 46 47 50 53 51 42 39 41 38 36 38 33 31 26 20 21 20 18 17 18 24 24 22 24 23 24 24 23 29 36
53 52 52 51 51 52 52 51 52 52 52 52 52 51 52 52 45 44 48 48 51 51 34 25 37 30 35 37 29 33 25 18 19 17 20 20 22 21 20 19 20 18 22 23 22 29 24
52 52 51 51 51 52 52 52 52 52 51 52 50 50 51 52 40 46 47 48 53 47 19 28 33 28 34 26 24 20 23 19 16 18 18 18 21 20 19 17 21 20 28 26 27 29 24
52 51 51 51 51 51 52 51 51 51 51 50 50 50 50 49 46 48 48 50 46 24 18 27 26 25 28 27 26 24 19 19 20 17 19 17 18 17 16 20 24 28 24 22 24 22 18
51 51 51 51 50 51 51 51 51 51 51 50 50 50 48 50 42 47 49 43 20 23 26 18 23 26 24 24 25 24 20 16 14 13 15 15 15 17 21 20 23 22 19 18 14 15 13
51 51 51 50 50 50 50 50 51 51 50 50 50 49 48 48 46 47 48 38 16 18 26 25 24 23 22 22 23 21 22 19 22 16 14 11 12 16 21 20 17 20 19 19 12 16 16
51 51 51 50 50 50 50 50 50 50 50 50 49 46 46 44 47 49 39 24 24 32 27 23 24 20 23 23 21 25 26 25 25 24 16 17 17 20 19 20 20 22 19 22 22 23 18
51 51 51 50 50 50 49 49 50 50 51 50 47 47 47 50 50 47 33 24 32 37 27 26 24 27 25 26 22 25 24 25 25 27 29 26 17 20 22 21 20 19 21 17 20 12 12
51 51 50 50 49 48 49 49 49 50 51 50 46 42 50 52 45 36 15 26 35 32 28 24 24 26 27 27 26 27 27 25 27 26 24 25 19 17 23 21 20 20 20 22 21 23 16
50 50 50 50 49 45 49 49 49 50 51 48 46 39 51 40 22 33 26 32 33 25 30 27 29 27 27 30 29 26 25 28 31 29 20 25 26 20 22 26 25 23 22 23 21 18 25
51 50 50 49 49 48 49 49 48 50 51 45 44 46 50 40 11 22 27 28 26 18 27 28 27 27 26 27 27 29 28 30 33 28 27 25 25 13 18 22 27 23 24 24 25 24 20
47 50 49 49 49 48 48 48 48 50 51 48 44 41 45 44 34 24 22 18 14 23 28 29 28 28 24 25 28 29 29 33 34 33 42 37 31 18 14 21 27 23 24 24 23 22 21
47 50 49 48 48 48 48 48 47 50 51 48 46 40 41 37 39 39 35 29 20 17 29 28 26 27 24 22 28 29 30 32 31 36 33 32 27 29 27 25 25 25 25 25 25 25 20
47 48 49 48 48 48 48 48 47 51 51 47 42 43 37 33 36 37 35 33 30 20 27 26 26 33 28 26 27 29 31 31 28 29 30 31 25 26 27 25 25 24 25 26 27 27 28
47 48 49 48 48 48 48 48 47 51 50 42 43 45 40 35 35 34 33 32 35 33 33 31 33 33 31 32 32 33 33 33 31 28 29 29 27 23 19 27 24 22 25 26 28 30 29
47 49 49 48 47 47 48 47 47 50 49 45 49 46 41 35 28 33 34 34 33 33 31 38 35 31 34 38 33 32 33 32 29 30 31 29 29 27 21 21 13 24 31 30 30 31 31
47 48 49 48 47 47 47 47 47 50 51 49 49 49 45 36 36 31 32 34 37 38 37 37 38 38 37 33 29 24 26 23 30 33 29 32 32 30 23 22 24 30 31 32 27 29 34
47 48 49 48 47 46 47 47 47 49 51 50 49 50 49 38 38 43 37 35 35 35 35 37 39 40 37 33 28 23 19 24 24 29 34 34 33 30 25 22 22 27 36 36 31 23 34
45 47 49 47 47 46 47 46 47 49 51 50 49 49 49 39 42 42 37 35 37 37 36 36 35 34 35 32 28 26 25 28 24 24 27 29 31 27 26 24 28 34 38 31 15 19 34
45 47 48 47 47 46 46 46 47 50 51 50 49 48 49 41 42 44 44 41 40 38 35 36 35 35 32 28 29 28 27 29 26 28 28 27 28 28 29 26 23 39 35 29 33 37 37
44 47 47 47 46 46 46 47 48 50 51 50 47 51 50 43 42 45 45 45 45 44 41 41 35 38 35 32 32 31 29 33 29 29 37 29 30 31 30 30 38 40 37 40 38 36 38
Lifted_Index
11 11 12 12 13 13 13 13 12 12 12 12 12 13 13 13 13 13 13 13 13 12 12 12 11 10 9 7 7 8 7 7 6 6 4 3 3 3 3 2 2 2 2 1 0 -1 -1
11 11 11 12 12 13 13 13 13 12 12 12 12 12 13 13 13 13 13 13 13 13 12 12 11 10 8 7 8 8 7 6 6 5 4 3 3 3 3 2 2 2 1 1 -0 -1 -1
10 11 11 11 12 12 12 13 13 12 12 12 12 12 13 13 13 13 13 13 12 12 11 11 11 9 8 7 8 8 6 5 4 4 4 3 3 3 2 2 2 1 1 0 -0 -1 -1
10 10 11 11 11 11 12 12 13 12 12 12 12 12 12 13 13 13 13 12 10 10 9 10 10 9 7 7 8 7 6 4 4 4 3 3 3 3 2 2 1 1 1 0 -0 -1 -1
10 10 10 10 11 11 12 12 12 12 12 12 12 12 12 13 13 13 11 9 8 8 8 9 9 8 7 7 7 6 6 4 4 4 4 3 3 2 2 1 1 1 1 0 0 0 0
9 10 10 10 11 11 11 12 12 12 12 12 12 12 12 13 13 11 9 7 7 7 8 8 8 8 7 7 7 6 6 5 4 4 4 3 3 2 1 1 1 1 1 1 1 1 2
9 9 10 10 10 10 11 11 12 12 12 12 12 12 13 13 12 10 7 6 6 6 7 7 7 7 7 7 7 6 6 5 5 4 4 3 3 2 2 2 1 1 1 1 1 2 2
8 9 9 10 10 10 10 11 11 12 12 12 12 13 13 13 11 8 6 6 6 5 6 7 7 7 7 7 7 6 6 5 5 4 4 3 3 3 3 3 2 2 1 1 2 2 2
8 8 9 10 10 10 10 10 11 12 12 12 13 13 13 13 11 8 6 6 6 5 5 6 7 7 7 7 6 6 6 5 5 4 4 4 3 3 3 3 3 2 2 2 2 2 2
8 8 9 10 10 10 10 10 11 12 12 12 13 13 13 12 10 7 6 6 6 4 4 5 7 7 7 6 6 6 6 5 5 5 4 4 4 4 3 3 3 3 2 2 2 2 2
8 8 9 9 10 10 10 10 11 11 12 12 12 13 13 12 10 7 6 6 5 3 3 4 6 7 7 6 6 6 5 5 5 5 5 5 4 4 4 3 3 3 3 2 2 2 2
8 8 9 9 10 10 10 10 10 11 11 11 12 12 12 11 10 8 7 6 4 3 3 4 6 6 7 6 6 6 5 5 5 5 5 5 5 4 4 4 3 3 3 2 2 2 2
9 9 9 9 9 10 10 10 10 11 11 11 11 12 13 12 10 8 7 5 3 3 4 5 5 6 6 6 6 6 5 5 5 4 4 4 4 4 4 3 3 3 2 2 1 1 1
9 9 9 9 9 10 10 10 10 10 10 10 11 11 12 12 10 8 6 4 3 4 4 5 5 5 6 6 6 6 5 4 4 4 4 3 3 3 3 3 3 2 2 1 1 1 1
9 9 9 9 9 10 10 10 10 10 9 9 10 10 10 10 9 8 6 4 4 4 5 5 5 5 5 6 6 5 5 4 3 3 3 3 2 3 3 3 2 2 2 1 1 1 1
8 9 9 10 10 10 10 10 10 9 9 9 8 8 7 7 8 7 6 5 4 5 5 5 5 5 5 5 5 5 4 3 3 3 3 3 2 2 2 2 2 2 2 1 1 1 0
8 9 9 10 10 10 10 10 10 9 8 8 7 6 5 5 6 7 6 5 5 5 5 5 5 5 5 5 5 4 3 3 3 3 3 3 2 2 2 2 2 2 2 2 1 1 1
8 9 9 10 10 11 11 11 10 9 8 7 5 4 4 4 6 6 6 6 5 5 5 5 5 5 5 5 4 4 3 2 3 3 3 3 2 2 2 2 2 2 2 2 2 1 1
8 8 9 10 10 11 11 11 10 9 8 6 4 3 4 4 5 6 6 6 6 5 5 5 5 5 5 5 4 3 2 2 3 3 3 2 2 2 2 3 3 3 3 3 3 2 2
8 8 9 10 10 10 11 11 11 9 7 5 3 3 4 5 6 6 6 6 6 5 5 5 5 5 5 4 4 3 2 2 3 3 3 3 2 2 3 3 4 4 4 4 4 3 3
8 8 8 9 10 10 11 11 11 10 7 5 3 4 4 5 6 6 6 6 6 6 5 5 5 5 5 5 4 3 3 3 3 3 3 3 3 3 4 5 5 5 5 5 5 5 4
8 8 8 9 10 10 11 11 11 10 8 5 4 4 5 6 6 6 6 6 6 6 6 5 5 5 6 5 5 4 3 3 3 4 4 4 4 4 5 5 6 6 6 6 5 5 5
8 7 8 9 10 10 11 11 11 10 8 6 4 3 4 5 6 6 6 6 6 6 6 5 5 6 6 6 5 5 4 4 4 4 4 5 5 4 4 5 5 5 6 5 5 5 5
7 7 7 8 9 10 11 11 11 9 8 6 4 3 3 4 5 5 6 6 5 5 6 5 6 6 6 6 6 6 5 5 5 5 5 5 5 4 4 4 4 5 5 5 5 5 5
7 7 7 8 9 10 11 11 10 9 8 6 4 3 3 4 4 5 5 5 5 5 5 5 5 6 5 6 6 6 5 5 5 5 5 5 5 4 3 3 3 4 4 4 4 5 5
7 7 7 7 9 10 11 11 10 9 7 6 4 3 3 3 4 5 5 5 4 4 5 5 5 5 5 6 6 4 4 4 4 4 5 5 5 4 3 2 3 4 4 4 4 5 5
7 7 7 7 9 10 10 11 10 9 7 6 4 3 3 3 3 4 4 4 4 4 4 5 5 5 5 6 5 4 4 4 4 4 4 4 4 3 3 2 2 3 4 4 4 5 5
8 7 7 7 8 9 10 10 10 9 7 6 4 3 3 3 3 3 4 4 4 4 4 4 5 5 5 6 5 5 4 5 4 4 4 4 3 3 3 3 3 3 4 4 4 4 4
8 7 7 7 8 9 10 10 10 9 7 6 4 3 3 3 3 3 3 3 4 4 4 4 5 5 5 6 6 5 5 5 4 4 4 4 3 3 3 3 3 3 4 4 4 4 4